Location: Arroyo Grande
(40.2671°N, 4.2512°W)
Time: 01:12:47
(UTC+00:00)

Cosmos 2278 Rocket - Pass Details

Date: 03 October 2023
Orbit: 842 x 844 km, 71.0° (Epoch: 03 December)

Event Time Altitude Azimuth Distance (km) Brightness Sun altitude
Rises 18:44:11 0° 340° (NNW) 3,410 5.7 -9.9°
Reaches altitude 10° 18:46:43 10° 346° (NNW) 2,471 4.9 -10.4°
Maximum altitude 18:52:15 53° 63° (ENE) 1,032 2.4 -11.4°
Drops below altitude 10° 18:57:45 10° 139° (SE) 2,455 4.2 -12.5°
Enters shadow 18:58:56 - 142° (SE) 2,895 4.6 -12.7°
